Weather History for Jamestown, NY

Change the Weather History Date:

Monday, November 8, 2010

  Actual Average Record
Temperature  
Mean Temperature 36 °F -  
Max Temperature 46 °F 47 °F 71 °F (1975)
Min Temperature 26 °F 31 °F 16 °F (1960)
Degree Days  
Heating Degree Days 29    
Moisture  
Dew Point 27 °F    
Average Humidity 70    
Maximum Humidity 81    
Minimum Humidity 49    
Precipitation  
Precipitation 0.00 in - - ()
Sea Level Pressure  
Sea Level Pressure 29.99 in    
Wind  
Wind Speed 4 mph (NNW)    
Max Wind Speed 15 mph    
Max Gust Speed 18 mph    
Visibility 10 miles    
Events      
Averages and records for this station are not official NWS values.
T = Trace of Precipitation, MM = Missing Value Source: NWS Daily Summary

Daily Weather History Graph

Daily Weather History Graph

Search for Another Location

Airport:

Trip Planner

Search our weather history database for the weather conditions in past years. The results will help you decide how hot, cold, wet, or windy it might be!

Date:

Astronomy

Nov. 08, 2010 Rise Set
Actual Time 6:58 AM EST 5:02 PM EST
Civil Twilight 6:28 AM EST 5:32 PM EST
Nautical Twilight 5:55 AM EST 6:05 PM EST
Astronomical Twilight 5:22 AM EST 6:38 PM EST
Moon 9:47 AM EST (11/8) 6:54 PM EST (11/8)
Length of Visible Light 11h 03m
Length of Day
10h 03m
Waxing Crescent, 8% of the Moon is Illuminated
Nov 8
Waxing Crescent
Nov 13
First Quarter
Nov 21
Full
Nov 28
Last Quarter
Dec 5
New

Hourly Weather History & Observations

Time (EST) Temp. Windchill Dew Point Humidity Pressure Visibility Wind Dir Wind Speed Gust Speed Precip Events Conditions
12:15 AM 30.2 °F 25.4 °F 21.2 °F 69% 30.09 in 10.0 mi South 4.6 mph - N/A   Clear
12:35 AM 30.2 °F - 21.2 °F 69% 30.09 in 10.0 mi Calm Calm - N/A   Clear
12:55 AM 30.2 °F - 19.4 °F 64% 30.08 in 10.0 mi Calm Calm - N/A   Clear
1:15 AM 30.2 °F - 21.2 °F 69% 30.07 in 10.0 mi Calm Calm - N/A   Clear
1:35 AM 30.2 °F 26.7 °F 21.2 °F 69% 30.06 in - South 3.5 mph - N/A   Clear
1:55 AM 28.4 °F 23.3 °F 21.2 °F 74% 30.05 in 10.0 mi SSW 4.6 mph - N/A   Clear
2:15 AM 30.2 °F 24.3 °F 21.2 °F 69% 30.04 in 10.0 mi SW 5.8 mph - N/A   Clear
2:35 AM 28.4 °F - 21.2 °F 74% 30.05 in 10.0 mi Calm Calm - N/A   Clear
2:55 AM 30.2 °F - 21.2 °F 69% 30.05 in 10.0 mi Calm Calm - N/A   Clear
3:15 AM 30.2 °F 26.7 °F 21.2 °F 69% 30.03 in 10.0 mi South 3.5 mph - N/A   Clear
3:35 AM 28.4 °F - 21.2 °F 74% 30.03 in 10.0 mi Calm Calm - N/A   Clear
3:55 AM 28.4 °F - 21.2 °F 74% 30.03 in 10.0 mi Calm Calm - N/A   Clear
4:15 AM 28.4 °F - 21.2 °F 74% 30.02 in 10.0 mi Calm Calm - N/A   Clear
4:35 AM 28.4 °F - 21.2 °F 74% 30.02 in 10.0 mi Calm Calm - N/A   Clear
4:55 AM 30.2 °F - 21.2 °F 69% 30.01 in - Calm Calm - N/A   Clear
5:15 AM 30.2 °F - 21.2 °F 69% 30.01 in - Calm Calm - N/A   Clear
5:35 AM 28.4 °F 24.6 °F 21.2 °F 74% 30.01 in 10.0 mi South 3.5 mph - N/A   Clear
5:55 AM 26.6 °F - 21.2 °F 80% 30.00 in 10.0 mi Calm Calm - N/A   Clear
6:15 AM 30.2 °F 25.4 °F 21.2 °F 69% 30.01 in 10.0 mi East 4.6 mph - N/A   Clear
6:35 AM 30.2 °F - 21.2 °F 69% 30.01 in 10.0 mi Calm Calm - N/A   Clear
6:55 AM 30.2 °F 25.4 °F 21.2 °F 69% 30.00 in 10.0 mi SW 4.6 mph - N/A   Clear
7:15 AM 30.2 °F 25.4 °F 21.2 °F 69% 29.99 in 10.0 mi SW 4.6 mph - N/A   Scattered Clouds
7:35 AM 30.2 °F 23.4 °F 21.2 °F 69% 29.99 in 10.0 mi West 6.9 mph - N/A   Partly Cloudy
7:55 AM 30.2 °F - 24.8 °F 80% 30.00 in 10.0 mi Calm Calm - N/A   Clear
8:15 AM 32.0 °F - 26.6 °F 80% 30.00 in 10.0 mi Calm Calm - N/A   Clear
8:35 AM 35.6 °F 32.8 °F 28.4 °F 75% 29.98 in 10.0 mi WSW 3.5 mph - N/A   Clear
9:15 AM 39.2 °F 35.9 °F 33.8 °F 81% 29.97 in 10.0 mi WNW 4.6 mph - N/A   Clear
9:35 AM 39.2 °F 35.0 °F 33.8 °F 81% 29.97 in 10.0 mi North 5.8 mph - N/A   Clear
9:55 AM 42.8 °F 38.6 °F 33.8 °F 70% 29.96 in 10.0 mi North 6.9 mph - N/A   Clear
10:15 AM 41.0 °F 37.1 °F 32.0 °F 70% 29.96 in 10.0 mi North 5.8 mph - N/A   Clear
10:35 AM 41.0 °F 36.4 °F 33.8 °F 76% 29.97 in 10.0 mi North 6.9 mph - N/A   Clear
10:55 AM 42.8 °F 37.0 °F 33.8 °F 70% 29.97 in 10.0 mi NNW 10.4 mph - N/A   Clear
11:15 AM 44.6 °F 40.7 °F 35.6 °F 71% 29.96 in 10.0 mi North 6.9 mph 17.3 mph N/A   Clear
11:35 AM 44.6 °F 38.8 °F 33.8 °F 66% 29.96 in 10.0 mi NNW 11.5 mph - N/A   Partly Cloudy
11:55 AM 44.6 °F 39.7 °F 33.8 °F 66% 29.96 in 10.0 mi North 9.2 mph - N/A   Partly Cloudy
12:15 PM 44.6 °F 38.4 °F 30.2 °F 57% 29.96 in 10.0 mi North 12.7 mph - N/A   Partly Cloudy
12:35 PM 46.4 °F 41.1 °F 30.2 °F 53% 29.95 in 10.0 mi North 11.5 mph - N/A   Clear
12:55 PM 44.6 °F 38.4 °F 30.2 °F 57% 29.95 in 10.0 mi NNW 12.7 mph 16.1 mph N/A   Clear
1:35 PM 44.6 °F 38.1 °F 28.4 °F 53% 29.95 in 10.0 mi NNW 13.8 mph - N/A   Clear
1:55 PM 44.6 °F 37.8 °F 26.6 °F 49% 29.95 in 10.0 mi NNW 15.0 mph 18.4 mph N/A   Clear
2:15 PM 44.6 °F 38.1 °F 28.4 °F 53% 29.94 in 10.0 mi NNW 13.8 mph - N/A   Clear
2:35 PM 44.6 °F 39.7 °F 28.4 °F 53% 29.93 in 10.0 mi NNW 9.2 mph - N/A   Clear
3:15 PM 44.6 °F 38.4 °F 30.2 °F 57% 29.93 in 10.0 mi NNW 12.7 mph 16.1 mph N/A   Clear
3:35 PM 44.6 °F 38.8 °F 30.2 °F 57% 29.94 in 10.0 mi NNW 11.5 mph - N/A   Clear
3:55 PM 44.6 °F 38.8 °F 30.2 °F 57% 29.94 in 10.0 mi NNW 11.5 mph - N/A   Clear
4:15 PM 42.8 °F 36.2 °F 30.2 °F 61% 29.95 in 10.0 mi North 12.7 mph 17.3 mph N/A   Clear
4:35 PM 41.0 °F 35.2 °F 30.2 °F 65% 29.95 in 10.0 mi North 9.2 mph - N/A   Partly Cloudy
4:55 PM 39.2 °F 33.6 °F 32.0 °F 75% 29.95 in 10.0 mi North 8.1 mph - N/A   Mostly Cloudy
5:15 PM 39.2 °F 33.6 °F 32.0 °F 75% 29.95 in 10.0 mi North 8.1 mph - N/A   Partly Cloudy
5:35 PM 39.2 °F 34.2 °F 30.2 °F 70% 29.96 in 10.0 mi North 6.9 mph - N/A   Clear
5:55 PM 39.2 °F 35.0 °F 30.2 °F 70% 29.96 in 10.0 mi North 5.8 mph - N/A   Clear
6:15 PM 37.4 °F 32.8 °F 30.2 °F 75% 29.97 in 10.0 mi North 5.8 mph - N/A   Clear
6:35 PM 37.4 °F 33.8 °F 30.2 °F 75% 29.97 in 10.0 mi North 4.6 mph - N/A   Clear
6:55 PM 37.4 °F 33.8 °F 30.2 °F 75% 29.97 in 10.0 mi North 4.6 mph - N/A   Clear
7:15 PM 37.4 °F 33.8 °F 30.2 °F 75% 29.96 in 9.0 mi North 4.6 mph - N/A   Clear
7:35 PM 35.6 °F 31.7 °F 30.2 °F 81% 29.97 in 8.0 mi North 4.6 mph - N/A   Clear
7:55 PM 37.4 °F 33.8 °F 30.2 °F 75% 29.96 in 8.0 mi North 4.6 mph - N/A   Clear
8:15 PM 35.6 °F 30.7 °F 30.2 °F 81% 29.96 in 7.0 mi North 5.8 mph - N/A   Clear
8:35 PM 35.6 °F 30.7 °F 30.2 °F 81% 29.96 in 7.0 mi North 5.8 mph - N/A   Clear
8:55 PM 37.4 °F 32.1 °F 30.2 °F 75% 29.96 in 6.0 mi North 6.9 mph - N/A   Clear
9:15 PM 35.6 °F 30.7 °F 30.2 °F 81% 29.97 in 6.0 mi North 5.8 mph - N/A   Clear
9:35 PM 35.6 °F 30.7 °F 30.2 °F 81% 29.97 in 5.0 mi North 5.8 mph - N/A   Clear
9:55 PM 35.6 °F 30.7 °F 30.2 °F 81% 29.97 in 6.0 mi North 5.8 mph - N/A   Clear
10:15 PM 35.6 °F 30.7 °F 30.2 °F 81% 29.97 in 5.0 mi North 5.8 mph - N/A   Clear
10:35 PM 35.6 °F 30.7 °F 30.2 °F 81% 29.97 in 6.0 mi North 5.8 mph - N/A   Clear
10:55 PM 35.6 °F 29.9 °F 30.2 °F 81% 29.97 in 6.0 mi North 6.9 mph - N/A   Clear
11:15 PM 35.6 °F 29.9 °F 30.2 °F 81% 29.97 in 5.0 mi North 6.9 mph - N/A   Clear
11:35 PM 35.6 °F 29.9 °F 30.2 °F 81% 29.97 in 5.0 mi North 6.9 mph - N/A   Clear
11:55 PM 35.6 °F 29.2 °F 32.0 °F 87% 29.96 in 5.0 mi North 8.1 mph - N/A   Clear